Regional Weather Roundup
Issued by NWS

Home | Current Version | Previous Version | Text Only | Print | Product List | Glossary On
Versions: 1 2 3 4 5 6 7 8 9 10 11 12 13 14 15 16 17 18 19 20 21 22 23 24 25 26 27 28 29 30 31 32 33 34 35 36 37 38 39 40 41 42 43 44 45 46 47 48 49 50
010
ASUS44 KBMX 020610
RWRAL

ALABAMA REGIONAL WEATHER ROUNDUP
NATIONAL WEATHER SERVICE BIRMINGHAM AL
100 AM CDT MON MAY 02 2016

NOTE: "FAIR" INDICATES FEW OR NO CLOUDS BELOW 12,000 FEET
WITH NO SIGNIFICANT WEATHER AND/OR OBSTRUCTIONS TO VISIBILITY.

THE REMARK "TC" DENOTES TEMPERATURE IN DEGREES CELSIUS.

ALZ001>011-014-016>018-020-020700-
NORTH ALABAMA

CITY           SKY/WX    TMP DP  RH WIND       PRES   REMARKS
MUSCLE SHOALS  NOT AVBL
HUNTSVILLE     CLOUDY    65  61  87 CALM      30.00S
6HR MIN TEMP:  64; 6HR MAX TEMP:  71;

DECATUR        CLOUDY    61  61 100 NE3       30.00F
6HR MIN TEMP:  61; 6HR MAX TEMP:  71;

HALEYVILLE     FAIR      62  61  96 S5        30.01F
6HR MIN TEMP:  62; 6HR MAX TEMP:  69;

GADSDEN        FOG       63  63 100 CALM      30.02S VSB 1/2
6HR MIN TEMP:  61; 6HR MAX TEMP:  69;

$$

ALZ012-013-022-023-030>036-040>044-020700-
WEST CENTRAL ALABAMA

CITY           SKY/WX    TMP DP  RH WIND       PRES   REMARKS
TUSCALOOSA     MOCLDY    64  64 100 NE3       29.98F FOG
6HR MIN TEMP:  64; 6HR MAX TEMP:  72;

$$

ALZ015-024>027-033>036-040>044-020700-
CENTRAL ALABAMA

CITY           SKY/WX    TMP DP  RH WIND       PRES   REMARKS
BIRMINGHAM     CLOUDY    64  63  96 CALM      30.02F
6HR MIN TEMP:  63; 6HR MAX TEMP:  69;

MONTGOMERY     CLOUDY    69  65  86 E3        30.00F
6HR MIN TEMP:  69; 6HR MAX TEMP:  73;

SHELBY CO ARPT PTCLDY    64  63  96 CALM      30.00F
6HR MIN TEMP:  63; 6HR MAX TEMP:  68;

MAXWELL AFB    CLOUDY    68  67  96 SE3       29.99F
6HR MIN TEMP:  68; 6HR MAX TEMP:  73;

GREENVILLE     FAIR      68  65  90 E3        29.99F
6HR MIN TEMP:  68; 6HR MAX TEMP:  73; 6HR PCP: TRACE;

$$

ALZ019-021-028-029-037-038-045>048-020700-
EAST CENTRAL ALABAMA

CITY           SKY/WX    TMP DP  RH WIND       PRES   REMARKS
ANNISTON       CLOUDY    63  61  93 CALM      30.02S
6HR MIN TEMP:  63; 6HR MAX TEMP:  66; 6HR PCP: TRACE;

ALEXANDER CITY CLOUDY    65  65 100 CALM      30.02S
6HR MIN TEMP:  65; 6HR MAX TEMP:  67;

AUBURN         CLOUDY    67  65  93 CALM      30.03S
6HR MIN TEMP:  67; 6HR MAX TEMP:  70; 6HR PCP:  0.09;

$$

ALZ051>064-020700-
SOUTHWEST ALABAMA

CITY           SKY/WX    TMP DP  RH WIND       PRES   REMARKS
MOBILE         CLOUDY    73  72  96 SW3       30.00R
6HR MIN TEMP:  71; 6HR MAX TEMP:  74; 6HR PCP: TRACE;

BROOKLEY FIELD CLOUDY    75  72  90 E9        29.99R
6HR MIN TEMP:  75; 6HR MAX TEMP:  76; 6HR PCP: TRACE;

EVERGREEN      MOCLDY    68  67  96 SE6       30.00F
6HR MIN TEMP:  68; 6HR MAX TEMP:  72;

$$

ALZ049-050-065>069-020700-
SOUTHEAST ALABAMA

CITY           SKY/WX    TMP DP  RH WIND       PRES   REMARKS
DOTHAN         PTCLDY    70  67  90 CALM      30.04F
6HR MIN TEMP:  69; 6HR MAX TEMP:  78;

OZARK          CLOUDY    71  69  96 CALM      30.00F
6HR MIN TEMP:  71; 6HR MAX TEMP:  80;

TROY           CLOUDY    68  66  93 CALM      30.01F
6HR MIN TEMP:  67; 6HR MAX TEMP:  70; 6HR PCP:  0.21;

EUFAULA        FAIR      66  63  90 CALM      30.01S
6HR MIN TEMP:  66; 6HR MAX TEMP:  79;

$$




USA.gov is the U.S. government's official web portal to all federal, state and local government web resources and services.